www.pogodaiklimat.ru
ПОГОДА в Черском
Время
(UTC), дата
15 12.11
18 12.11
21 12.11
00 13.11
03 13.11
06 13.11
09 13.11
12 13.11
15 13.11
18 13.11
21 13.11
00 14.11
03 14.11
06 14.11
09 14.11
12 14.11
15 14.11
18 14.11
21 14.11
00 15.11
03 15.11
06 15.11
09 15.11
12 15.11
15 15.11
18 15.11
21 15.11
00 16.11
03 16.11
06 16.11
09 16.11
12 16.11
15 16.11
18 16.11
21 16.11
00 17.11
03 17.11
06 17.11
09 17.11
12 17.11
15 17.11
18 17.11
21 17.11
00 18.11
03 18.11
06 18.11
09 18.11
12 18.11
15 18.11
18 18.11
21 18.11
00 19.11
03 19.11
06 19.11
09 19.11
12 19.11
Ветер
(напр.,м/с)
Видим. Явления Облачность Т
(С)
Тd
(С)
f
(%)
Тe
(С)
Тes
(С)
Комфортность P
(гПа)
Po
(гПа)
Тmin
(С)
Tmax
(С)
R
(мм)
R24
(мм)
S
(см)
С 2 20 км 10/0
[Ac trans Ci ing]
-12.0 -13.3 90 -17 -17 очень
холодно
1014.7 1011.4
С 2 20 км 10/0
[Ac trans Ci fib]
-12.2 -13.5 90 -17 -17 очень
холодно
1015.3 1012.0
В 1 20 км 4/0
[Ac trans]
-14.4 -15.7 90 -17 -17 очень
холодно
1016.5 1013.1 -14.4 18
С 1 20 км 3/0
[Ac trans]
-12.3 -13.6 90 -15 -15 очень
холодно
1017.7 1014.4 -15.0
СЗ 1 20 км 4/0
[As trans]
-14.3 -15.6 90 -17 -17 очень
холодно
1018.6 1015.2
СЗ 1 4000 м дымка {туман} 10/10 120 м
[St]
-13.4 -14.0 95 -16 -16 очень
холодно
1019.4 1016.0
штиль 0 500 м туман ?/? -12.2 -12.8 95 -12 -12 очень
холодно
1019.8 1016.5 -12.2
штиль 0 200 м туман ?/? -12.1 -13.4 90 -12 -12 очень
холодно
1019.2 1015.9
штиль 0 200 м туман ?/? -12.7 -14.0 90 -13 -13 очень
холодно
1018.9 1015.6
ЮВ 2 1000 м слаб. снег {туман} 10/8 360 м
[Sc As op]
-11.9 -13.2 90 -16 -16 очень
холодно
1019.4 1016.1
штиль 0 20 км {снег} 8/5 300 м
[Sc As op]
-11.5 -12.8 90 -12 -12 очень
холодно
1020.5 1017.2 -12.7 1 18
ЮВ 1 20 км {снег} 10/8 800 м
[Sc Ac trans]
-11.4 -12.7 90 -14 -14 очень
холодно
1021.6 1018.2
ЮВ 1 4000 м дымка 10/10 300 м
[Sc]
-10.1 -10.7 95 -12 -12 очень
холодно
1022.5 1019.2
ЮВ 1 20 км 10/10 210 м
[St]
-10.0 -11.3 90 -12 -12 очень
холодно
1023.8 1020.5
штиль 0 2000 м дымка 10/10 90 м
[St]
-9.5 -10.2 95 -10 -10 очень
холодно
1024.9 1021.6 -9.4
штиль 0 2000 м дымка 10/10 90 м
[St]
-10.0 -10.6 95 -10 -10 очень
холодно
1025.2 1021.9
С 1 20 км 8/8 120 м
[St]
-9.4 -10.1 95 -12 -12 очень
холодно
1025.0 1021.7
З 1 20 км 8/8 1260 м
[Sc]
-9.3 -10.5 91 -12 -12 очень
холодно
1023.9 1020.6
штиль 0 20 км ясно -12.1 -12.7 95 -12 -12 очень
холодно
1023.2 1019.8 -12.1 18
штиль 0 20 км 6/6 1000 м
[Sc As op]
-7.4 -8.7 90 -8 -8 очень
холодно
1022.7 1019.4
штиль 0 20 км 8/5 1020 м
[Sc As op]
-8.6 -9.3 95 -9 -9 очень
холодно
1021.7 1018.4
штиль 0 20 км 9/5 1080 м
[Sc Ac As]
-8.4 -8.7 98 -9 -9 очень
холодно
1020.6 1017.3
штиль 0 20 км 10/0
[Ac As]
-10.4 -11.0 95 -11 -11 очень
холодно
1020.1 1016.8 -7.4
штиль 0 20 км 10/0
[As trans]
-8.7 -9.8 92 -9 -9 очень
холодно
1020.1 1016.8
ЮВ 1 20 км 9/0
[As trans]
-10.5 -11.0 96 -13 -13 очень
холодно
1019.3 1016.0
штиль 0 20 км 10/0
[As trans Cs]
-12.1 -13.4 90 -12 -12 очень
холодно
1019.2 1015.9
ЮВ 1 20 км 10/0
[As trans Cs]
-14.8 -16.1 90 -17 -17 очень
холодно
1019.6 1016.2 -14.8 19
ЮВ 1 20 км 8/0
[As trans Ci fib]
-16.4 -17.7 90 -19 -19 очень
холодно
1019.7 1016.3 -16.6
В 1 20 км 3/0
[As trans]
-16.9 -18.1 90 -20 -20 очень
холодно
1019.6 1016.2
ЮВ 1 20 км 1/0
[As trans]
-19.0 -20.9 85 -22 -22 очень
холодно
1019.6 1016.2
штиль 0 20 км 3/0
[As trans]
-20.0 -21.2 90 -20 -20 очень
холодно
1020.0 1016.5 -14.8
ЮВ 2 20 км слаб. снег 10/0
[As op]
-21.2 -23.0 85 -27 -27 очень
холодно
1020.5 1017.0
ЮВ 2 200 м туман ?/? -20.8 -22.6 85 -27 -27 очень
холодно
1020.1 1016.6
ЮВ 2 200 м туман ?/? -20.3 -22.2 85 -26 -26 очень
холодно
1020.2 1016.7
ЮВ 2 2000 м дымка {туман} 10/10 90 м
[St]
-20.1 -22.0 85 -26 -26 очень
холодно
1020.5 1017.0 -21.4 0.0 19
Ю 1 1000 м дымка {туман} 5/5 90 м
[St]
-20.9 -22.1 90 -24 -24 очень
холодно
1020.6 1017.1
штиль 0 4000 м дымка 5/5 90 м
[St]
-21.9 -23.1 90 -22 -22 очень
холодно
1020.2 1016.7
Ю 2 1000 м дымка 8/8 90 м
[St]
-22.3 -23.4 91 -29 -29 очень
холодно
1020.4 1016.9
Ю 1 1000 м дымка 6/6 90 м
[St]
-23.0 -24.2 90 -26 -26 очень
холодно
1020.6 1017.1 -20.0
ЮВ 1 20 км 6/6 120 м
[St]
-23.9 -25.1 90 -27 -27 очень
холодно
1020.3 1016.8
ЮВ 1 20 км 3/0
[Ci ing]
-24.1 -25.3 90 -28 -28 очень
холодно
1020.4 1016.9
Ю 1 20 км слаб. снег 10/10 210 м
[Sc]
-22.9 -24.1 90 -26 -26 очень
холодно
1020.3 1016.8
ЮВ 1 20 км слаб. снег 10/10 240 м
[Sc]
-21.9 -23.1 90 -25 -25 очень
холодно
1020.5 1017.0 -24.1 0.6 21
Ю 2 20 км слаб. снег 10/10 210 м
[Sc]
-21.2 -23.0 85 -27 -27 очень
холодно
1020.9 1017.4
Ю 2 20 км слаб. снег 10/10 210 м
[Sc]
-20.3 -21.5 90 -26 -26 очень
холодно
1021.2 1017.7
Ю 2 4000 м слаб. снег 10/10 270 м
[Sc]
-19.4 -20.6 90 -25 -25 очень
холодно
1022.1 1018.6
Ю 1 20 км слаб. снег 10/10 270 м
[Sc]
-18.8 -20.0 90 -22 -22 очень
холодно
1022.9 1019.5 -18.8 0.8
ЮВ 1 4000 м слаб. снег 10/10 400 м
[Sc]
-18.7 -19.9 90 -22 -22 очень
холодно
1024.0 1020.6
ЮВ 1 4000 м слаб. снег 10/10 700 м
[Sc]
-20.5 -21.7 90 -24 -24 очень
холодно
1024.3 1020.9
ЮВ 1 20 км {снег} 10/10 450 м
[Sc]
-19.5 -20.7 90 -22 -22 очень
холодно
1025.0 1021.5
ЮВ 1 20 км 10/6 270 м
[Sc As op]
-19.2 -20.4 90 -22 -22 очень
холодно
1025.3 1021.8 -19.2 0.3 22
ЮВ 1 20 км дымка 10/8 180 м
[St As op]
-18.6 -19.8 90 -21 -21 очень
холодно
1025.1 1021.7
штиль 0 2000 м дымка 10/10 90 м
[St]
-18.8 -20.0 90 -19 -19 очень
холодно
1024.6 1021.2
штиль 0 20 км слаб. снег 8/5 180 м
[St As trans]
-19.5 -20.7 90 -20 -20 очень
холодно
1024.2 1020.7
штиль 0 2000 м дымка {снег} 10/10 90 м
[St]
-21.6 -22.8 90 -22 -22 очень
холодно
1023.2 1019.7 -18.5 0.2
штиль 0 500 м туман ?/? -21.8 -23.0 90 -22 -22 очень
холодно
1022.0 1018.5
Местоположение метеостанции Черский (Якутия, Россия): широта 68.73 долгота 161.30 высота над уровнем моря 28 м.
В архиве по умолчанию представлена погода в Черском за последнюю неделю. Архивные данные за месяц целиком и за предыдущие месяцы, начиная с января 2011 года, Вы можете получить, выбрав интересующий диапазон дат из раскрывающегося списка и нажав кнопку "Найти!".
*Определитесь, кто Вы:
Внимание! Время в таблицах - всемирное. Для получения местного времени необходимо прибавить поправку, которая равна 11 ч.
Смотрите также архив погоды в соседних городах и на ближайших метеорологических станциях:
Партнеры нашего сайта:      
Пояснения к столбцам:
  • Ветер - указаны скорость ветра в м/с - средняя за 10 мин, порывы в срок и между сроками (в фигурных скобках) и направление, откуда дует ветер: С - северный,
  • СВ - северо-восточный, В - восточный, ЮВ - юго-восточный, Ю - южный, ЮЗ - юго-западный, З - западный, СЗ - северо-западный.
  • Видимость - горизонтальная дальность видимости в метрах или километрах. При видимости от 1 до 10 км при отсутствии осадков обычно наблюдается дымка, при ухудшении видимости до 1 км и менее - туман. В сухую погоду видимость может ухудшаться дымом, пылью или мглою.
  • Явления - указаны атмосферные явления, наблюдавшиеся в срок или в последний час перед сроком; фигурными скобками обозначены явления, наблюдавшиеся между сроками (за 1-3 часа до срока); квадратными скобками обозначены град или гололедные отложения с указанием их диаметра в мм.
  • Облачность - указаны через наклонную черту общая и нижняя облачность в баллах и высота нижней границы облаков в метрах; квадратными скобками обозначены формы облаков: Ci - перистые, Cs - перисто-слоистые, Cc - перисто-кучевые, Ac - высококучевые, As - высокослоистые, Sc - слоисто-кучевые, Ns - слоисто-дождевые, Cu - кучевые, Cb - кучево-дождевые. Подробнее классификацию облаков см. в Атласе облаков (PDF).
  • T - Температура воздуха - температура, измеренная на высоте 2 м над землей.
  • Td - Температура точки росы - температура, при понижении до которой содержащийся в воздухе водяной пар достигнет насыщения.
  • f - Относительная влажность воздуха - влажноcть воздуха, измеренная на высоте 2 м над землей.
  • Te - Эффективная температура - температура, которую ощущает одетый по сезону человек в тени. Характеристика душности погоды. При расчете учитывается влияние влажности воздуха и скорости ветра на теплоощущения человека.
  • Tes - Эффективная температура на солнце - температура, которую ощущает человек, с поправкой на солнечный нагрев. Характеристика знойности погоды. Зависит от высоты солнца над горизонтом, облачности и скорости ветра. Ночью, в пасмурную погоду, а также при ветре 12 м/с и более поправка равна нулю.
  • P - Атмосферное давление - приведенное к уровню моря атмосферное давление.
  • Po - Атмосферное давление - измеренное на уровне метеостанции атмосферное давление.
  • Tmin - Минимальная температура - минимум температуры воздуха на высоте 2 м над землей.
  • Tmax - Максимальная температура - максимум температуры воздуха на высоте 2 м над землей.
  • R - Количество осадков - Количество выпавших осадков за период времени, мм. При наведении курсора мыши на число - период времени, за который выпало указанное количество осадков.
  • R24 - Количество осадков - Количество выпавших осадков за 24 часа, мм.
  • S - Снежный покров - Высота снежного покрова, см. При наведении курсора мыши на число - состояние снежного покрова и степень покрытия местности в баллах.